• In Latvia
  • List of Countries
  • For 7 days
  • Water Temperature
  • Satellite Maps
  • Weather Map
  • Weather Widgets
  • user-avatar
    Login

    Hourly Weather Ali Bayramli

    Today, 20 January, Friday

    Time Temperature Precipitation Wind Pressure Humidity
    00:00 +3°C° 0 mm 4 mps 769 mmHg 79%
    01:00 +1°C° 0 mm 4 mps 769 mmHg 79%
    02:00 +1°C° 0 mm 4 mps 769 mmHg 80%
    03:00 +1°C° 0 mm 5 mps 770 mmHg 77%
    04:00 +1°C° 0 mm 5 mps 770 mmHg 77%
    05:00 0°C° 0 mm 5 mps 770 mmHg 78%
    06:00 0°C° 0 mm 5 mps 770 mmHg 78%
    07:00 +1°C° 0 mm 4 mps 770 mmHg 77%
    08:00 +1°C° 0 mm 4 mps 770 mmHg 76%
    09:00 +1°C° 0 mm 4 mps 770 mmHg 73%
    10:00 +1°C° 0 mm 4 mps 770 mmHg 71%
    11:00 +3°C° 0 mm 3 mps 769 mmHg 69%
    12:00 +3°C° 0 mm 3 mps 769 mmHg 67%
    13:00 +4°C° 0 mm 3 mps 769 mmHg 67%
    14:00 +5°C° 0 mm 2 mps 768 mmHg 66%
    15:00 +5°C° 0 mm 2 mps 768 mmHg 66%
    16:00 +5°C° 0 mm 2 mps 768 mmHg 68%
    17:00 +4°C° 0 mm 2 mps 768 mmHg 71%
    18:00 +4°C° 0 mm 2 mps 768 mmHg 74%
    19:00 +5°C° 0 mm 1 mps 768 mmHg 76%
    20:00 +4°C° 0 mm 1 mps 768 mmHg 77%
    21:00 +4°C° 0 mm 1 mps 768 mmHg 79%
    22:00 +4°C° 0 mm 1 mps 767 mmHg 81%
    23:00 +4°C° 0 mm 1 mps 767 mmHg 82%

    Tomorrow, 21 January, Saturday

    Time Temperature Precipitation Wind Pressure Humidity
    00:00 +3°C° 0 mm 1 mps 767 mmHg 84%
    01:00 +3°C° 0 mm 1 mps 767 mmHg 85%
    02:00 +2°C° 0 mm 2 mps 767 mmHg 87%
    03:00 +2°C° 0 mm 2 mps 766 mmHg 88%
    04:00 +1°C° 0 mm 2 mps 766 mmHg 89%
    05:00 +1°C° 0 mm 2 mps 766 mmHg 90%
    06:00 +1°C° 0 mm 2 mps 766 mmHg 91%
    07:00 +2°C° 0 mm 2 mps 766 mmHg 86%
    08:00 +2°C° 0 mm 2 mps 767 mmHg 82%
    09:00 +3°C° 0 mm 2 mps 767 mmHg 77%
    10:00 +4°C° 0 mm 2 mps 767 mmHg 70%
    11:00 +5°C° 0 mm 2 mps 766 mmHg 63%
    12:00 +6°C° 0 mm 2 mps 766 mmHg 56%
    13:00 +7°C° 0 mm 2 mps 766 mmHg 55%
    14:00 +7°C° 0 mm 2 mps 766 mmHg 53%
    15:00 +7°C° 0 mm 2 mps 765 mmHg 51%
    16:00 +7°C° 0 mm 1 mps 765 mmHg 57%
    17:00 +6°C° 0 mm 1 mps 765 mmHg 63%
    18:00 +5°C° 0 mm 1 mps 765 mmHg 68%
    19:00 +4°C° 0 mm 1 mps 765 mmHg 70%
    20:00 +4°C° 0 mm 1 mps 765 mmHg 72%
    21:00 +4°C° 0 mm 1 mps 765 mmHg 74%
    22:00 +3°C° 0 mm 1 mps 765 mmHg 74%
    23:00 +3°C° 0 mm 1 mps 765 mmHg 74%

    Day after tomorrow, 22 January, Sunday

    Time Temperature Precipitation Wind Pressure Humidity
    00:00 +2°C° 0 mm 2 mps 764 mmHg 73%
    01:00 +2°C° 0 mm 2 mps 764 mmHg 72%
    02:00 +1°C° 0 mm 3 mps 764 mmHg 71%
    03:00 +1°C° 0 mm 3 mps 764 mmHg 70%
    04:00 -1°C° 0 mm 4 mps 764 mmHg 70%
    05:00 -1°C° 0 mm 4 mps 764 mmHg 70%
    06:00 -2°C° 0 mm 4 mps 764 mmHg 70%
    07:00 -1°C° 0 mm 4 mps 764 mmHg 65%
    08:00 0°C° 0 mm 4 mps 765 mmHg 61%
    09:00 +1°C° 0 mm 4 mps 765 mmHg 57%
    10:00 +3°C° 0 mm 4 mps 765 mmHg 54%
    11:00 +4°C° 0 mm 3 mps 765 mmHg 51%
    12:00 +7°C° 0 mm 3 mps 765 mmHg 48%
    13:00 +7°C° 0 mm 2 mps 765 mmHg 48%
    14:00 +7°C° 0 mm 2 mps 765 mmHg 47%
    15:00 +8°C° 0 mm 1 mps 765 mmHg 46%
    16:00 +5°C° 0.1 mm 3 mps 766 mmHg 51%
    17:00 +4°C° 0.1 mm 4 mps 768 mmHg 56%
    18:00 +3°C° 0.1 mm 6 mps 769 mmHg 61%
    19:00 +2°C° 0.1 mm 7 mps 770 mmHg 62%
    20:00 0°C° 0.1 mm 8 mps 770 mmHg 63%
    21:00 -1°C° 0.1 mm 9 mps 771 mmHg 64%
    22:00 -1°C° 0.1 mm 8 mps 772 mmHg 66%
    23:00 -2°C° 0.1 mm 8 mps 772 mmHg 68%

    23 January, Monday

    Time Temperature Precipitation Wind Pressure Humidity
    00:00 -2°C° 0.1 mm 7 mps 773 mmHg 70%
    01:00 -2°C° 0.1 mm 6 mps 773 mmHg 71%
    02:00 -1°C° 0.1 mm 5 mps 773 mmHg 72%
    03:00 -2°C° 0.1 mm 4 mps 774 mmHg 74%
    04:00 -2°C° 0 mm 4 mps 774 mmHg 74%
    05:00 -1°C° 0 mm 3 mps 774 mmHg 75%
    06:00 -1°C° 0 mm 2 mps 774 mmHg 75%
    07:00 +1°C° 0 mm 2 mps 774 mmHg 72%
    08:00 +1°C° 0 mm 2 mps 775 mmHg 70%
    09:00 +2°C° 0 mm 2 mps 775 mmHg 67%
    10:00 +3°C° 0 mm 2 mps 774 mmHg 65%
    11:00 +3°C° 0 mm 3 mps 774 mmHg 62%
    12:00 +4°C° 0 mm 3 mps 773 mmHg 60%
    13:00 +4°C° 0 mm 4 mps 773 mmHg 60%
    14:00 +4°C° 0 mm 4 mps 772 mmHg 60%
    15:00 +4°C° 0 mm 4 mps 772 mmHg 59%
    16:00 +3°C° 0 mm 4 mps 772 mmHg 65%
    17:00 +2°C° 0 mm 3 mps 772 mmHg 72%
    18:00 +1°C° 0 mm 3 mps 772 mmHg 78%
    19:00 0°C° 0 mm 3 mps 772 mmHg 79%
    20:00 0°C° 0 mm 3 mps 772 mmHg 80%
    21:00 +1°C° 0 mm 2 mps 773 mmHg 81%
    22:00 +1°C° 0 mm 2 mps 772 mmHg 80%
    23:00 +1°C° 0 mm 2 mps 772 mmHg 80%

    24 January, Tuesday

    Time Temperature Precipitation Wind Pressure Humidity
    00:00 -1°C° 0 mm 2 mps 772 mmHg 79%
    01:00 -1°C° 0 mm 2 mps 772 mmHg 78%
    02:00 -1°C° 0 mm 2 mps 772 mmHg 78%
    03:00 -1°C° 0 mm 2 mps 771 mmHg 78%
    04:00 -1°C° 0 mm 2 mps 771 mmHg 78%
    05:00 -1°C° 0 mm 2 mps 771 mmHg 78%
    06:00 -1°C° 0 mm 2 mps 771 mmHg 79%
    07:00 +1°C° 0 mm 2 mps 771 mmHg 74%
    08:00 +2°C° 0 mm 2 mps 771 mmHg 69%
    09:00 +3°C° 0 mm 2 mps 771 mmHg 64%
    10:00 +4°C° 0 mm 2 mps 770 mmHg 60%
    11:00 +6°C° 0 mm 2 mps 769 mmHg 55%
    12:00 +7°C° 0 mm 3 mps 769 mmHg 50%
    13:00 +7°C° 0 mm 3 mps 768 mmHg 49%
    14:00 +7°C° 0 mm 3 mps 767 mmHg 48%
    15:00 +8°C° 0 mm 3 mps 767 mmHg 47%
    16:00 +5°C° 0 mm 3 mps 767 mmHg 53%
    17:00 +5°C° 0 mm 2 mps 767 mmHg 59%
    18:00 +3°C° 0 mm 2 mps 767 mmHg 65%
    19:00 +3°C° 0 mm 2 mps 766 mmHg 66%
    20:00 +2°C° 0 mm 2 mps 766 mmHg 67%
    21:00 +2°C° 0 mm 2 mps 766 mmHg 68%
    22:00 +2°C° 0 mm 2 mps 765 mmHg 69%
    23:00 +2°C° 0 mm 2 mps 765 mmHg 70%

    25 January, Wednesday

    Time Temperature Precipitation Wind Pressure Humidity
    00:00 +2°C° 0 mm 2 mps 764 mmHg 70%
    01:00 +2°C° 0 mm 2 mps 764 mmHg 70%
    02:00 0°C° 0 mm 3 mps 763 mmHg 69%
    03:00 0°C° 0 mm 3 mps 763 mmHg 68%
    04:00 0°C° 0 mm 3 mps 762 mmHg 66%
    05:00 0°C° 0 mm 3 mps 762 mmHg 65%
    06:00 0°C° 0 mm 3 mps 762 mmHg 64%
    07:00 +1°C° 0 mm 3 mps 761 mmHg 61%
    08:00 +2°C° 0 mm 3 mps 761 mmHg 57%
    09:00 +3°C° 0 mm 3 mps 761 mmHg 54%
    10:00 +4°C° 0 mm 4 mps 760 mmHg 48%
    11:00 +6°C° 0 mm 4 mps 760 mmHg 42%
    12:00 +7°C° 0 mm 5 mps 759 mmHg 36%
    13:00 +7°C° 0 mm 4 mps 759 mmHg 36%
    14:00 +8°C° 0 mm 4 mps 758 mmHg 35%
    15:00 +8°C° 0 mm 4 mps 758 mmHg 34%
    16:00 +8°C° 0 mm 3 mps 758 mmHg 37%
    17:00 +5°C° 0 mm 3 mps 758 mmHg 41%
    18:00 +5°C° 0 mm 2 mps 758 mmHg 44%
    19:00 +4°C° 0 mm 2 mps 758 mmHg 44%
    20:00 +4°C° 0 mm 2 mps 757 mmHg 44%
    21:00 +4°C° 0 mm 2 mps 757 mmHg 43%
    22:00 +3°C° 0 mm 3 mps 757 mmHg 42%
    23:00 +2°C° 0 mm 3 mps 756 mmHg 41%
    Show more